Regional Weather Roundup
Issued by NWS

Home | Current Version | Previous Version | Text Only | Print | Product List | Glossary On
Versions: 1 2 3 4 5 6 7 8 9 10 11 12 13 14 15 16 17 18 19 20 21 22 23 24 25 26 27 28 29 30 31 32 33 34 35 36 37 38 39 40 41 42 43 44 45 46 47 48 49 50
000
ASUS43 KLSX 242210
RWRMO

WEATHER SUMMARY FOR MISSOURI
NATIONAL WEATHER SERVICE SPRINGFIELD MO
500 PM CDT WED MAY 24 2017

NOTE: "FAIR" INDICATES FEW OR NO CLOUDS BELOW 12,000 FEET WITH NO
       SIGNIFICANT WEATHER AND/OR OBSTRUCTIONS TO VISIBILITY.
       CURRENT SKY AND/OR WEATHER CONDITIONS ARE NOT AVAILABLE FOR
       CHILLICOTHE AND FARMINGTON.

MOZ001>031-035>038-043-044-053-054-242300-
...NORTHERN AND WESTERN MISSOURI...

CITY           SKY/WX    TMP DP  RH WIND       PRES   REMARKS
KANSAS CTY INT PTSUNNY   65  50  58 N10       29.67F
KANSAS C DTWN  PTSUNNY   66  48  52 N13       29.66F
LEE`S SUMMIT   MOSUNNY   65  49  56 NW12G22   29.67F
ST JOSEPH      PTSUNNY   66  48  52 NW9       29.67F
CHILLICOTHE      N/A     65  53  65 VRB6      29.66S
KIRKSVILLE     LGT RAIN  55  52  89 W7        29.65R FOG

$$
MOZ066>068-077>081-088>096-101>105-242300-
...SOUTHWEST MISSOURI...

CITY           SKY/WX    TMP DP  RH WIND       PRES   REMARKS
SPRINGFIELD    RAIN      55  51  86 NW12      29.67S FOG
JOPLIN         CLOUDY    65  49  56 NW10      29.70S
BRANSON        LGT RAIN  54  50  87 NW7       29.69R

$$
MOZ032>034-039>042-045>050-055>058-069>072-242300-
...CENTRAL MISSOURI...

CITY           SKY/WX    TMP DP  RH WIND       PRES   REMARKS
COLUMBIA       MOSUNNY   63  46  54 NW9       29.61F
JEFFERSON CITY MOSUNNY   68  42  38 NW10G23   29.61F
ROLLA          PTSUNNY   63  47  55 NW12      29.60S
SEDALIA        PTSUNNY   64  51  62 NE8       29.65S
WHITEMAN AFB   LGT RAIN  56  56 100 N14       29.65R
WARRENSBURG    HVY RAIN  59  52  77 N10G22    29.67R
OSAGE BEACH    MOSUNNY   64  49  57 VRB5      29.64F

$$
MOZ051-052-059>065-242300-
...EAST CENTRAL MISSOURI...

CITY           SKY/WX    TMP DP  RH WIND       PRES   REMARKS
ST LOUIS INTL  PTSUNNY   69  47  45 NW14G21   29.55S
SPIRIT OF STL  PTSUNNY   65  50  58 NW10      29.56R
ST CHARLES     MOSUNNY   68  50  52 NW15      29.54F

$$
MOZ072>076-082>087-097>100-106>115-242300-
...SOUTH CENTRAL AND SOUTHEAST MISSOURI...

CITY           SKY/WX    TMP DP  RH WIND       PRES   REMARKS
CAPE GIRARDEAU CLOUDY    65  46  50 NW15      29.54S
FARMINGTON     PTSUNNY   64  47  53 NW8G17    29.58S
POPLAR BLUFF   LGT RAIN  62  48  60 NW12G23   29.58R
WEST PLAINS    MOSUNNY   64  47  53 NW12G18   29.63S

$$



USA.gov is the U.S. government's official web portal to all federal, state and local government web resources and services.